EW9198 Weather Reports


Display with metric or nautical units.
time (UTC)temp
F
wind
direction
speed
MPH
gust
MPH
rain 1hr
in
rain 24hr
in
rain mn
in
humidity
%
barometer
mb
20210616014507 0 360 10.0 22.0 0.00 0.00 0.00 1014.6
20210616013202 0 360 12.0 25.0 0.00 0.00 0.00 1014.5
20210616011611 0 360 16.0 28.0 0.00 0.00 0.00 1014.2
20210616010107 0 360 15.0 24.0 0.00 0.00 0.00 1013.0
20210616004702 0 360 4.0 6.0 0.00 0.00 0.00 1012.7
20210616003103 0 360 0.0 0.0 0.00 0.00 0.00 1012.6
20210616001638 0 360 1.0 3.0 0.00 0.00 0.00 1012.4
20210615234547 0 360 0.0 2.0 0.00 0.00 0.00 1012.2
20210615233030 0 360 0.0 2.0 0.00 0.00 0.00 1011.8
20210615231515 0 360 3.0 5.0 0.00 0.00 0.00 1011.0
20210615230022 0 360 4.0 8.0 0.00 0.00 0.00 1011.2
20210615224525 0 360 3.0 5.0 0.00 0.00 0.00 1011.7
20210615223012 0 360 6.0 12.0 0.00 0.00 0.00 1011.7
20210615221514 0 360 2.0 3.0 0.00 0.00 0.00 1011.6
20210615220009 0 360 1.0 3.0 0.00 0.00 0.00 1011.6
20210615214522 0 360 3.0 8.0 0.00 0.00 0.00 1011.5
20210615213008 0 360 3.0 5.0 0.00 0.00 0.00 1011.9
20210615211515 0 360 5.0 9.0 0.00 0.00 0.00 1012.1
20210615210001 0 360 11.0 17.0 0.00 0.00 0.00 1012.4
20210615204705 0 360 19.0 24.0 0.00 0.00 0.00 1012.4
20210615203222 0 360 18.0 26.0 0.00 0.00 0.00 1012.9
20210615201618 0 360 16.0 19.0 0.00 0.00 0.00 1012.8
20210615200036 0 360 1.0 5.0 0.00 0.00 0.00 1013.0
20210615194515 0 360 3.0 8.0 0.00 0.00 0.00 1013.0
20210615193013 0 360 3.0 6.0 0.00 0.00 0.00 1013.0
20210615191514 0 360 1.0 3.0 0.00 0.00 0.00 1013.1
20210615190045 0 360 4.0 6.0 0.00 0.00 0.00 1013.3
20210615184605 0 360 5.0 8.0 0.00 0.00 0.00 1013.5
20210615183035 0 360 6.0 8.0 0.00 0.00 0.00 1013.5
20210615181546 0 360 5.0 8.0 0.00 0.00 0.00 1013.5
20210615180035 0 360 3.0 5.0 0.00 0.00 0.00 1013.8
20210615174611 0 360 3.0 5.0 0.00 0.00 0.00 1013.7
20210615173131 0 360 3.0 5.0 0.00 0.00 0.00 1013.9
20210615171617 0 360 3.0 6.0 0.00 0.00 0.00 1014.0
20210615170057 0 360 3.0 5.0 0.00 0.00 0.00 1014.1
20210615164613 0 360 4.0 6.0 0.00 0.00 0.00 1014.1
20210615163055 0 360 3.0 6.0 0.00 0.00 0.00 1014.1
20210615161545 0 360 5.0 8.0 0.00 0.00 0.00 1014.1
20210615160103 0 360 5.0 8.0 0.00 0.00 0.00 1014.1
20210615154557 0 360 4.0 6.0 0.00 0.00 0.00 1014.0
20210615153111 0 360 4.0 6.0 0.00 0.00 0.00 1014.0
20210615151612 0 360 3.0 5.0 0.00 0.00 0.00 1014.1
20210615150055 0 360 3.0 5.0 0.00 0.00 0.00 1014.2
20210615144655 0 360 3.0 5.0 0.00 0.00 0.00 1014.2
20210615143136 0 360 2.0 4.0 0.00 0.00 0.00 1014.2
20210615141548 0 360 1.0 3.0 0.00 0.00 0.00 1014.2
20210615140048 0 360 1.0 3.0 0.00 0.00 0.00 1014.2
20210615134534 0 360 0.0 3.0 0.00 0.00 0.00 1014.1
20210615133054 0 360 1.0 3.0 0.00 0.00 0.00 1014.0
20210615131511 0 360 0.0 3.0 0.00 0.00 0.00 1013.9
20210615130010 0 360 1.0 3.0 0.00 0.00 0.00 1013.9
20210615124714 0 360 0.0 3.0 0.00 0.00 0.00 1013.7
20210615123128 0 360 0.0 3.0 0.00 0.00 0.00 1013.6
20210615121619 0 360 2.0 3.0 0.00 0.00 0.00 1013.5
20210615120133 0 360 0.0 0.0 0.00 0.00 0.00 1013.3
20210615114545 0 360 0.0 0.0 0.00 0.00 0.00 1013.2
20210615113042 0 360 0.0 1.0 0.00 0.00 0.00 1013.1
20210615111542 0 360 0.0 1.0 0.00 0.00 0.00 1013.0
20210615110033 0 360 0.0 0.0 0.00 0.00 0.00 1012.8
20210615104649 0 360 0.0 0.0 0.00 0.00 0.00 1012.7
20210615103152 0 360 0.0 3.0 0.00 0.00 0.00 1012.7
20210615101523 0 360 1.0 5.0 0.00 0.00 0.00 1012.6
20210615100028 0 360 3.0 5.0 0.00 0.00 0.00 1012.7
20210615093044 0 360 2.0 3.0 0.00 0.00 0.00 1012.5
20210615091642 0 360 2.0 4.0 0.00 0.00 0.00 1012.5
20210615090140 0 360 3.0 4.0 0.00 0.00 0.00 1012.5
20210615084647 0 360 0.0 1.0 0.00 0.00 0.00 1012.5
20210615083059 0 360 1.0 2.0 0.00 0.00 0.00 1012.5
20210615081652 0 360 1.0 2.0 0.00 0.00 0.00 1012.5
20210615080056 0 360 0.0 0.0 0.00 0.00 0.00 1012.4
20210615074533 0 360 0.0 0.0 0.00 0.00 0.00 1012.2
20210615073055 0 360 0.0 2.0 0.00 0.00 0.00 1012.2
20210615071605 0 360 0.0 0.0 0.00 0.00 0.00 1012.2
20210615070037 0 360 0.0 0.0 0.00 0.00 0.00 1012.2
20210615064512 0 360 0.0 0.0 0.00 0.00 0.00 1012.4
20210615063137 0 360 2.0 5.0 0.00 0.00 0.00 1012.4
20210615061652 0 360 3.0 6.0 0.00 0.00 0.00 1012.4
20210615060112 0 360 3.0 6.0 0.00 0.00 0.00 1012.3
20210615054613 0 360 2.0 5.0 0.00 0.00 0.00 1012.4
20210615053052 0 360 0.0 3.0 0.00 0.00 0.00 1012.5
20210615051554 0 360 2.0 5.0 0.00 0.00 0.00 1012.5
20210615050109 0 360 1.0 6.0 0.00 0.00 0.00 1012.5
20210615044527 0 360 4.0 8.0 0.00 0.00 0.00 1012.5
20210615043104 0 360 5.0 8.0 0.00 0.00 0.00 1012.4
20210615041526 0 360 4.0 5.0 0.00 0.00 0.00 1012.5
20210615040037 0 360 3.0 6.0 0.00 0.00 0.00 1012.6
20210615034509 0 360 6.0 9.0 0.00 0.00 0.00 1012.4
20210615033213 0 360 8.0 10.0 0.00 0.00 0.00 1012.3
20210615031650 0 360 2.0 4.0 0.00 0.00 0.00 1012.0
20210615030126 0 360 0.0 0.0 0.00 0.00 0.00 1011.8
20210615024655 0 360 1.0 2.0 0.00 0.00 0.00 1011.7
20210615023037 0 360 0.0 3.0 0.00 0.00 0.00 1011.6
20210615021521 0 360 4.0 5.0 0.00 0.00 0.00 1011.4
20210615020002 0 360 4.0 6.0 0.00 0.00 0.00 1011.2